This is the latest recevied weather packets stored in our database for station/object S51UL-6. If no packets are shown the sender has not sent any weather packets the latest 10 day(s).
| Time | Temp. | Humidity | Pressure | Rain* | Wind** | Luminosity | Snow |
|---|---|---|---|---|---|---|---|
| 1788592835 | 23.33° C | 76% | 1018.2 hPa | 0 mm | - | - | - |
| 1788592535 | 22.78° C | 77% | 1017.5 hPa | 0 mm | - | - | - |
| 1788592235 | 22.78° C | 78% | 1017.6 hPa | 0 mm | - | - | - |
| 1788591935 | 22.22° C | 79% | 1017.6 hPa | 0 mm | - | - | - |
| 1788591635 | 22.22° C | 81% | 1017.6 hPa | 0 mm | - | - | - |
| 1788591336 | 21.67° C | 83% | 1017.3 hPa | 0 mm | - | - | - |
| 1788591055 | 21.11° C | 85% | 1017.2 hPa | 0 mm | - | - | - |
| 1788590736 | 21.11° C | 85% | 1017.1 hPa | 0 mm | - | - | - |
| 1788590435 | 20.56° C | 86% | 1017.1 hPa | 0 mm | - | - | - |
| 1788590137 | 20° C | 87% | 1017.1 hPa | 0 mm | - | - | - |
| 1788589835 | 19.44° C | 88% | 1017 hPa | 0 mm | - | - | - |
| 1788589535 | 18.89° C | 88% | 1016.9 hPa | 0 mm | - | - | - |
| 1788589246 | 18.33° C | 89% | 1016.9 hPa | 0 mm | - | - | - |
| 1788588636 | 17.78° C | 89% | 1016.7 hPa | 0 mm | - | - | - |
| 1788588335 | 17.22° C | 89% | 1016.6 hPa | 0 mm | - | - | - |
| 1788588036 | 16.67° C | 89% | 1016.7 hPa | 0 mm | - | - | - |
| 1788587736 | 16.11° C | 89% | 1016.6 hPa | 0 mm | - | - | - |
| 1788587136 | 15.56° C | 89% | 1016.7 hPa | 0 mm | - | - | - |
| 1788586836 | 15.56° C | 88% | 1016.6 hPa | 0 mm | - | - | - |
| 1788586536 | 15.56° C | 89% | 1016.6 hPa | 0 mm | - | - | - |
| 1788585936 | 15.56° C | 89% | 1016.3 hPa | 0 mm | - | - | - |
| 1788585636 | 15.56° C | 89% | 1016.4 hPa | 0 mm | - | - | - |
| 1788585036 | 15° C | 88% | 1016.3 hPa | 0 mm | - | - | - |
| 1788584737 | 15° C | 88% | 1016.1 hPa | 0 mm | - | - | - |
| 1788584437 | 14.44° C | 88% | 1016.1 hPa | 0 mm | - | - | - |
* Rain latest hour (hover to see other rain measurements)
** Current wind speed in m/s (hover to see current wind gust speed)